SOYUZ-MS 09 (43493 NORAD) Tracking and Keplerian Element Data

This shows tracking and keplerian element data for the satellite.

Feedback or suggestion? Click here.




ElementValue
Catalog43493
NameSOYUZ-MS 09
Epoch Orbit14251
Epoch Day322.51121006
Epoch Year2018
RAAN329.6769
Inclination51.6421
Eccentricity0.0005208
Argument of Perigee60.1203
Mean Anonmoly89.1996
Mean Motion15.53980112
Decay Rate1.342E-05
L11 43493U 18051A 18322.51121006 .00001342 00000-0 27681-4 0 9998
L22 43493 51.6421 329.6769 0005208 60.1203 89.1996 15.53980112142513

Live tracking and technical data element details for SOYUZ-MS 09 (NORAD 43493). SOYUZ-MS 09 can be tracked NOW for your location showing map with azimuth and elevation plus other details from your city location.

Track the satellite on the map from your city or location and see movement details for azimuth, elevation, latitude, longitude, range, height, and movement on the map or in text.







IsCatalogInMostPopularTable: catalog: 43493, numindb: 59
Update: records affected: 1



GetName: 43493 SOYUZ-MS 09

Hit Count: updated at: Mon, 19 Nov 2018 16:16:42 GMT